Vertical_Velocity
6 1 -4 0 2 -0 -0 1 0 -1 -1 -1 -3 2 -2 2 0 -3 1 1 1 1 1 1 0 1 2 0 3 1 -0 -2 1 2 2 -0 -1 -1 1 1 -2 -2 1 1 -1
-2 -2 2 3 -2 0 -1 -1 -1 2 -1 -1 -1 -4 1 -1 -1 2 -5 3 -3 2 0 1 1 4 1 2 0 -1 -3 1 -2 1 2 2 1 2 2 0 -4 -3 0 -0 0
1 3 0 -2 5 1 -0 -2 -1 -1 1 0 -0 -3 -2 -0 -3 -2 1 -1 2 -1 2 1 1 3 3 2 -3 1 -5 3 2 1 3 -0 1 1 1 -2 -3 5 2 2 -1
4 0 3 1 -1 1 -1 3 -3 -3 -0 1 1 0 -1 2 -3 1 3 1 0 3 3 1 -1 0 2 -0 2 1 2 0 -2 1 2 2 -2 -1 2 -1 1 3 3 -2 0
-5 2 -1 -2 1 -0 3 2 -0 -4 -3 1 4 1 -1 -2 4 -4 -1 2 3 0 4 4 -1 4 3 3 3 0 -4 2 2 1 -0 -1 -1 2 -1 -0 2 1 1 2 -1
-7 1 3 2 -1 0 2 4 0 1 -5 -2 0 0 -2 -5 2 1 -0 2 3 3 1 5 -0 4 7 2 2 -4 3 1 2 0 -1 0 -3 1 -0 1 -0 -0 2 1 2
-3 -2 -2 -1 2 -1 -2 0 2 3 -1 -4 -4 -3 -5 4 3 -2 1 3 4 3 3 3 5 3 -3 5 1 -2 4 1 -2 -1 -1 3 -2 -24 0 1 -1 -0 1 -0 1
1 -3 -2 -2 0 -0 -1 -2 1 5 3 3 0 -0 -20 8 0 4 2 2 6 1 2 3 3 8 2 -3 1 2 1 6 -0 -0 -4 6 -12 1 -4 -3 1 2 1 2 0
-2 -3 0 -4 -1 1 3 -3 -1 6 2 3 -2 2 -3 -6 3 11 -1 4 5 6 1 3 4 5 6 -1 1 3 3 -1 3 -2 1 1 -1 -5 -2 -1 2 -0 -0 3 1
-0 -0 -3 -3 -5 -1 1 -1 -1 -0 5 6 7 8 -3 -2 -1 4 5 5 2 7 3 3 3 1 4 4 -12 -5 1 1 3 -3 -1 2 -1 -4 -2 -0 3 -0 0 1 0
0 -3 1 -1 0 -2 0 -3 -3 -7 1 -1 -1 3 -2 2 7 6 6 4 2 5 -0 5 -2 -13 -14 -4 9 -2 0 2 0 -0 2 -2 3 -6 -1 -1 -2 -2 -0 -0 1
-6 4 -0 1 -2 -0 2 0 3 9 4 0 5 3 4 5 7 5 4 3 3 -1 6 3 -9 -6 11 4 1 1 4 -1 1 -1 1 1 -3 -3 -3 -4 -2 -1 -1 1 2
-2 -5 2 1 -4 -2 -1 0 -4 6 18 -24 8 -3 -1 0 -3 2 5 10 6 5 -2 -2 -2 2 2 4 1 2 -0 1 2 1 -0 -1 -17 -6 -5 -2 -2 -3 1 -1 2
-1 -2 -1 1 -0 2 -0 6 12 10 20 -17 -19 -35 -13 4 -24 10 1 9 3 -3 8 1 9 6 3 2 3 5 -1 1 2 -4 7 -2 -6 -4 -0 -0 -10 3 -3 -0 -1
-1 2 0 11 3 -0 2 6 10 9 12 10 -3 -1 1 -14 8 -6 0 13 -0 -7 -3 -6 -4 -5 1 -9 3 -8 2 2 6 -0 1 3 2 -6 -2 -5 -4 -2 0 -0 1
-3 -1 2 6 7 -0 1 2 6 7 -3 10 1 -3 5 6 6 10 2 16 17 7 -0 15 2 4 6 4 2 2 3 3 2 2 8 -8 3 -10 -2 -5 -3 0 2 2 3
-2 -4 3 0 1 -1 5 1 6 3 0 3 -1 2 18 3 17 3 -3 4 -12 8 2 6 -0 0 4 7 9 4 4 4 9 8 -5 -3 10 -24 5 0 -3 -1 1 2 3
-2 2 5 -4 1 3 2 3 6 -3 -4 -13 4 5 2 5 7 -7 11 4 6 -1 9 -6 11 -3 -4 1 -20 -15 -12 -6 -5 -2 -2 -2 -5 -21 -7 -5 -3 -2 1 1 1
-0 2 0 -3 -0 2 3 14 -1 3 10 -5 10 9 12 10 -7 0 -8 -3 -1 -1 -7 1 8 3 2 3 -2 -3 -2 8 1 -5 2 -4 -7 -14 -4 -1 -2 -1 -0 0 2
-1 -1 0 -1 1 2 3 -3 -2 -9 1 -17 6 1 7 10 6 3 3 -8 -0 -8 4 2 5 1 3 9 7 -4 11 2 1 1 1 2 -2 -7 1 1 0 1 2 -1 -0
-1 -3 -1 -2 4 -1 1 -1 -2 -1 2 13 4 5 -1 15 9 3 12 -4 9 -2 5 1 5 3 10 -13 -6 -2 1 4 3 0 1 0 -3 -2 2 -0 0 1 0 -0 1
-2 -1 -1 -0 0 2 5 -3 5 -7 9 4 -8 -10 0 -5 -4 3 -17 15 7 7 -13 -2 -1 -1 -12 1 1 8 4 -0 1 -4 -1 -0 1 -0 2 -0 -0 -2 -1 -0 -1
-1 -3 1 0 -1 0 1 1 2 -0 1 -2 -1 1 2 1 6 -0 -1 -7 1 4 -11 -9 10 3 9 4 -0 -8 -2 1 6 5 -6 3 -3 -3 0 0 1 -0 -0 -0 -1
-4 -3 -2 1 2 1 1 2 3 3 0 -1 -2 -1 5 2 7 -11 11 1 -8 4 4 5 -2 -10 -17 -23 -4 -11 -4 3 10 8 -4 -13 -3 -6 3 -1 0 -0 -2 -1 -1
-1 -1 -0 -0 -1 1 7 0 -2 2 5 4 0 5 -9 10 2 4 0 -1 4 1 -1 1 -7 -3 7 2 -1 5 -2 -9 -11 -13 1 -10 -15 -5 2 1 1 -0 -1 -2 -1
-2 -2 -2 -2 -0 -2 5 1 0 -0 1 -6 -3 -0 10 -0 5 -6 -12 5 -2 -3 2 11 -8 -1 -4 1 1 -1 5 7 7 12 11 4 -10 13 5 0 -2 1 -1 -1 -1
-3 -2 -1 4 -0 -1 7 8 13 14 7 0 -3 10 -1 -3 1 4 -3 -6 1 -0 3 2 -2 6 -8 1 3 3 -24 -10 6 12 2 -9 -23 -2 -7 -3 -4 0 1 2 -0
Height
3082 3080 3079 3076 3074 3073 3071 3069 3067 3066 3065 3064 3063 3062 3062 3062 3062 3061 3061 3062 3063 3064 3066 3066 3069 3073 3075 3076 3079 3081 3085 3084 3086 3086 3089 3090 3092 3095 3097 3100 3102 3104 3106 3109 3111
3077 3075 3073 3071 3069 3067 3066 3064 3062 3060 3059 3058 3058 3057 3056 3057 3056 3057 3058 3056 3058 3059 3061 3063 3065 3068 3070 3072 3073 3075 3078 3082 3080 3083 3085 3088 3090 3092 3095 3096 3099 3102 3104 3105 3108
3072 3069 3066 3064 3062 3060 3059 3057 3056 3055 3053 3052 3051 3051 3050 3051 3052 3051 3051 3052 3052 3055 3057 3058 3061 3063 3066 3068 3068 3069 3072 3076 3076 3078 3081 3084 3086 3088 3090 3092 3096 3099 3101 3102 3105
3066 3063 3061 3058 3056 3053 3051 3050 3049 3048 3047 3045 3045 3044 3044 3046 3049 3046 3046 3046 3047 3048 3052 3053 3055 3058 3060 3061 3064 3065 3068 3070 3072 3075 3077 3079 3082 3084 3086 3089 3091 3094 3096 3098 3100
3059 3056 3053 3051 3048 3046 3043 3041 3040 3040 3039 3038 3037 3037 3038 3038 3042 3041 3041 3042 3044 3044 3046 3049 3051 3054 3056 3057 3059 3060 3062 3066 3069 3070 3073 3075 3078 3080 3082 3084 3087 3089 3092 3094 3096
3050 3046 3044 3041 3039 3037 3035 3033 3031 3031 3032 3031 3030 3029 3029 3030 3034 3034 3035 3037 3039 3040 3042 3044 3047 3049 3051 3053 3055 3056 3060 3062 3064 3066 3068 3071 3073 3074 3078 3079 3081 3085 3087 3090 3092
3040 3036 3033 3030 3027 3027 3025 3023 3021 3021 3021 3023 3023 3021 3019 3023 3027 3028 3030 3031 3034 3035 3037 3040 3041 3044 3045 3048 3049 3053 3056 3056 3057 3061 3063 3066 3065 3068 3072 3074 3077 3080 3082 3084 3086
3029 3025 3022 3018 3017 3014 3012 3012 3011 3010 3011 3013 3014 3012 3005 3017 3018 3021 3024 3026 3028 3030 3032 3033 3036 3039 3041 3042 3045 3049 3051 3054 3053 3055 3058 3061 3058 3063 3065 3069 3071 3074 3076 3079 3082
3016 3012 3008 3004 3003 3001 2998 2997 2997 2999 2999 3003 3005 3004 2998 3007 3009 3015 3016 3019 3022 3024 3026 3028 3030 3033 3035 3039 3044 3044 3045 3047 3050 3049 3052 3053 3053 3055 3060 3061 3063 3067 3070 3074 3076
3003 2998 2994 2992 2990 2989 2988 2984 2986 2987 2990 2992 2994 2998 2992 2997 2999 3003 3007 3011 3014 3018 3020 3022 3025 3026 3029 3032 3034 3038 3040 3041 3043 3043 3045 3046 3046 3050 3053 3054 3057 3059 3063 3066 3069
2992 2989 2986 2983 2981 2979 2979 2977 2980 2979 2977 2979 2981 2982 2986 2989 2993 2995 2998 3002 3006 3010 3011 3016 3018 3015 3020 3025 3032 3033 3036 3038 3039 3040 3041 3041 3041 3044 3047 3048 3048 3052 3054 3058 3061
2986 2981 2978 2975 2973 2970 2970 2969 2972 2972 2967 2965 2969 2974 2977 2982 2984 2988 2992 2994 2996 2999 3006 3010 3006 3016 3020 3023 3027 3029 3032 3034 3036 3036 3038 3037 3032 3035 3038 3038 3042 3046 3048 3051 3057
2977 2974 2971 2967 2964 2964 2963 2964 2962 2962 2957 2955 2959 2961 2968 2976 2977 2981 2985 2989 2991 2995 2996 3001 3004 3009 3012 3015 3020 3025 3028 3030 3034 3034 3034 3032 3025 3026 3031 3032 3036 3039 3041 3045 3048
2969 2965 2963 2959 2957 2956 2956 2955 2955 2955 2949 2944 2948 2950 2956 2965 2966 2973 2979 2985 2986 2989 2994 2998 3002 3003 3005 3009 3015 3019 3025 3028 3029 3033 3033 3031 3024 3020 3022 3024 3027 3031 3034 3038 3042
2963 2958 2955 2951 2950 2950 2951 2950 2949 2951 2941 2940 2940 2943 2945 2951 2962 2964 2972 2977 2980 2984 2989 2992 2994 2997 2999 3003 3010 3016 3021 3023 3027 3029 3030 3028 3030 3014 3015 3017 3020 3023 3028 3032 3036
2956 2953 2949 2947 2945 2945 2944 2944 2946 2948 2934 2934 2935 2935 2938 2942 2952 2960 2964 2972 2977 2981 2984 2989 2990 2993 2996 3000 3005 3011 3017 3021 3025 3028 3023 3019 3022 3006 3010 3011 3015 3018 3021 3026 3030
2950 2947 2944 2941 2942 2940 2939 2941 2943 2937 2935 2934 2933 2933 2935 2939 2946 2952 2955 2960 2964 2971 2976 2982 2985 2988 2992 2996 3001 3007 3013 3019 3023 3022 3010 3011 3015 3000 3004 3005 3009 3012 3014 3019 3024
2945 2941 2940 2938 2936 2936 2937 2939 2937 2932 2930 2932 2933 2932 2935 2938 2942 2946 2951 2955 2961 2967 2973 2976 2983 2981 2986 2990 2991 2999 3005 3004 3002 3004 3001 3010 3001 2991 2997 3000 3004 3006 3009 3012 3016
2941 2938 2936 2934 2933 2933 2934 2934 2931 2930 2929 2930 2931 2932 2934 2935 2939 2943 2947 2951 2954 2961 2968 2971 2976 2977 2983 2986 2991 2996 2997 3002 3000 2999 3000 2996 2992 2990 2991 2994 2997 3001 3004 3007 3011
2938 2936 2933 2931 2930 2931 2932 2929 2928 2928 2927 2928 2929 2929 2930 2934 2937 2940 2943 2945 2951 2956 2964 2968 2972 2974 2978 2983 2986 2986 2994 2999 2997 2995 2991 2988 2989 2983 2984 2988 2992 2995 2999 3004 3007
2936 2933 2932 2930 2929 2929 2928 2927 2924 2926 2927 2928 2927 2926 2928 2931 2934 2936 2937 2941 2946 2950 2958 2964 2967 2971 2973 2973 2975 2982 2984 2987 2990 2988 2980 2978 2981 2981 2982 2984 2986 2989 2995 3000 3003
2933 2932 2930 2928 2929 2926 2925 2924 2924 2924 2925 2925 2924 2925 2927 2929 2930 2934 2936 2940 2942 2947 2951 2957 2961 2965 2965 2968 2972 2977 2979 2981 2982 2984 2983 2984 2980 2979 2979 2980 2982 2985 2991 2996 2999
2931 2930 2928 2927 2926 2924 2922 2921 2920 2921 2922 2922 2922 2923 2924 2927 2931 2931 2934 2938 2941 2944 2947 2949 2953 2957 2964 2967 2966 2966 2970 2973 2977 2978 2977 2981 2978 2978 2978 2979 2980 2984 2988 2992 2996
2930 2929 2927 2925 2924 2923 2921 2918 2918 2918 2919 2920 2920 2921 2921 2923 2926 2929 2933 2934 2938 2941 2944 2947 2948 2951 2951 2950 2954 2958 2963 2965 2970 2974 2974 2975 2979 2979 2978 2980 2981 2984 2987 2990 2994
2930 2929 2927 2925 2923 2921 2920 2917 2916 2916 2916 2917 2916 2918 2920 2921 2924 2928 2931 2933 2936 2939 2941 2944 2943 2945 2947 2948 2951 2951 2952 2958 2962 2965 2969 2974 2975 2978 2978 2979 2981 2983 2985 2988 2990
2930 2928 2926 2924 2923 2920 2916 2914 2914 2914 2915 2916 2916 2916 2918 2921 2923 2925 2927 2929 2931 2935 2936 2938 2938 2940 2941 2944 2946 2946 2948 2951 2953 2957 2964 2967 2967 2972 2975 2977 2979 2981 2983 2986 2989
2930 2928 2927 2924 2922 2920 2918 2915 2912 2911 2912 2914 2915 2916 2916 2919 2920 2922 2923 2926 2928 2929 2931 2933 2934 2935 2935 2939 2943 2942 2937 2941 2944 2949 2954 2953 2960 2965 2970 2973 2976 2978 2981 2984 2987